EHI
0 0 0 1 1 1 0 0 0 0 0 1 2 3 3 3 3 3 3 4 5 6 6 5 6 6 6 6 6 4 3 3 3 3 3 3 3 3 3 4 4 4 3
0 0 0 1 1 0 0 0 0 0 0 0 1 3 3 3 3 3 3 3 4 4 4 4 4 5 5 5 5 4 3 3 3 3 3 3 3 3 3 4 4 4 3
0 0 0 1 0 0 0 0 0 0 0 0 1 2 3 3 3 3 3 3 3 3 3 3 4 4 4 4 4 3 3 4 4 4 3 3 3 3 3 3 4 3 3
0 0 0 0 0 0 1 0 0 0 0 0 1 2 3 3 3 3 3 4 4 4 4 4 4 4 3 3 3 3 4 4 5 4 4 3 3 3 3 3 3 3 4
1 0 0 0 0 0 0 0 0 1 1 1 1 2 4 4 3 3 3 4 5 5 4 4 4 3 3 3 3 3 3 4 4 4 3 3 3 3 3 3 3 4 4
1 0 0 0 0 0 0 0 0 0 0 1 1 2 4 4 3 3 3 2 3 3 4 3 3 3 3 3 3 3 4 4 4 3 3 3 3 3 3 3 3 3 4
1 0 0 0 0 0 0 0 0 0 0 1 2 2 3 3 3 3 3 1 1 1 3 3 3 3 3 3 3 3 4 6 4 3 3 3 3 3 3 3 3 3 3
0 0 0 0 0 0 0 0 0 0 0 1 2 1 1 2 3 3 3 2 1 1 2 3 3 3 3 3 3 3 5 6 5 3 3 3 4 3 3 3 3 3 3
0 0 0 0 0 0 0 0 0 0 0 1 1 0 0 1 2 3 3 3 2 1 2 3 3 3 3 3 3 3 4 5 4 3 3 4 4 4 3 3 3 3 4
0 0 0 0 0 0 0 0 0 0 0 0 0 0 0 1 1 2 2 3 3 3 3 3 3 3 3 3 4 3 3 4 3 3 3 4 4 4 3 3 3 4 4
0 0 0 0 0 0 0 0 0 0 0 0 0 0 0 0 0 0 1 2 3 3 3 3 4 4 3 4 4 4 3 3 3 3 3 3 4 3 3 3 3 3 4
0 0 0 0 0 0 0 0 0 0 0 0 0 0 0 0 0 0 0 1 2 3 3 4 4 4 4 3 4 4 4 3 3 3 3 3 3 3 3 3 3 3 3
0 0 0 0 0 0 0 0 0 0 0 0 0 0 0 0 0 0 0 0 1 2 3 3 4 4 3 3 3 4 3 3 3 3 3 3 3 3 3 3 3 3 3
0 0 0 0 0 0 0 0 0 0 0 0 0 0 0 0 0 0 0 0 0 1 2 2 3 3 3 3 3 3 3 3 3 3 3 3 3 3 3 3 3 3 3
0 0 0 0 0 0 0 0 0 0 0 0 0 0 0 0 0 0 0 1 0 0 1 1 1 2 2 2 2 2 3 3 3 3 3 3 2 2 3 3 3 3 3
0 0 0 0 0 0 0 0 0 0 0 0 0 0 0 0 0 0 0 0 0 0 0 0 0 1 1 1 1 1 1 2 3 3 3 3 2 2 2 3 3 3 3
0 0 0 0 0 0 0 0 0 0 0 0 0 0 0 0 0 0 0 0 0 0 0 0 0 0 0 0 0 0 0 1 2 3 3 3 3 2 2 2 3 3 3
0 0 0 0 0 0 0 0 0 0 0 0 0 0 0 0 0 0 0 0 0 0 0 0 0 0 0 0 0 0 0 0 1 1 2 2 2 2 2 2 3 3 3
0 0 0 0 0 0 0 0 0 0 0 0 0 0 0 0 0 0 0 0 0 0 0 0 0 0 0 0 0 0 0 0 0 0 1 1 1 1 1 2 3 3 3
0 0 0 0 0 0 0 0 0 0 0 0 0 0 0 0 0 0 0 0 0 0 0 0 0 0 0 0 0 0 0 0 0 0 0 0 0 0 0 1 2 2 2
0 0 0 0 0 0 0 0 0 0 0 0 0 0 0 0 0 0 0 0 0 0 0 0 0 0 0 0 0 0 0 0 0 0 0 0 0 0 0 0 1 1 1
0 0 0 0 0 0 0 0 0 0 0 0 0 0 0 0 0 0 0 0 0 0 0 0 0 0 0 0 0 0 0 0 0 0 0 0 0 0 0 0 0 0 0
0 0 0 0 0 0 0 0 0 0 0 0 0 0 0 0 0 0 0 0 0 0 0 0 0 0 0 0 0 0 0 0 0 0 0 0 0 0 0 0 0 0 0
0 0 0 0 0 0 0 0 0 0 0 0 0 0 0 0 0 0 0 0 0 0 0 0 0 0 0 0 0 0 0 0 0 0 0 0 0 0 0 0 0 0 0
0 0 0 0 0 0 0 0 0 0 0 0 0 0 0 0 0 0 0 0 0 0 0 0 0 0 0 0 0 0 0 0 0 0 0 0 0 0 0 0 0 0 0
0 0 0 0 0 0 0 0 0 0 0 0 0 0 0 0 0 0 0 0 0 0 0 0 0 0 0 0 0 0 0 0 0 0 0 0 0 0 0 0 0 0 0
Wind_Speed
7 8 11 12 13 13 13 13 13 13 13 12 12 12 12 12 12 11 11 11 11 11 10 10 9 9 9 9 9 8 8 7 7 6 6 6 6 7 7 8 8 6 8
10 10 12 13 14 14 14 13 13 13 13 12 12 12 11 11 11 10 10 10 10 10 10 10 9 9 9 8 8 8 7 6 6 5 4 4 5 6 7 8 8 6 7
12 11 12 13 14 14 13 13 13 12 12 12 12 12 11 11 10 10 10 9 9 9 9 9 9 9 9 8 7 7 6 6 7 7 5 1 3 6 7 7 7 7 7
13 11 12 14 14 14 14 13 13 13 12 12 12 11 11 10 10 10 9 9 9 9 9 9 8 8 8 7 7 6 7 7 8 8 3 3 4 8 8 8 7 6 6
13 12 12 14 14 14 13 13 13 13 12 11 11 10 10 10 9 9 8 8 8 8 8 8 8 7 7 7 7 6 7 8 8 5 3 3 4 8 8 8 8 7 7
13 12 11 14 14 13 13 13 12 12 11 11 10 9 9 9 9 8 8 8 8 8 8 8 7 7 7 7 7 7 7 8 7 2 2 3 4 7 8 8 8 7 7
13 12 11 13 13 13 12 12 11 11 10 10 9 8 8 8 8 8 8 8 8 8 8 7 7 7 7 6 7 7 8 10 4 1 2 4 4 7 8 8 7 7 7
12 12 11 12 12 12 11 11 10 9 9 8 7 6 6 5 6 7 8 8 8 7 7 7 7 7 6 6 6 6 8 9 5 3 3 4 6 8 7 7 7 6 7
10 10 9 9 10 11 11 10 9 7 6 6 4 3 2 2 4 5 7 8 7 7 6 5 5 5 5 5 5 6 7 8 5 2 4 4 7 8 7 7 6 6 6
7 7 8 8 9 8 7 8 7 6 5 3 1 0 1 1 2 3 6 6 5 5 4 3 4 4 5 5 6 7 7 7 3 2 3 5 9 8 7 7 6 6 6
6 5 6 5 5 6 6 7 6 5 3 3 3 2 2 1 2 2 5 3 1 2 3 4 5 6 6 6 8 8 7 2 0 3 4 7 8 8 7 7 7 7 6
5 5 5 5 5 4 4 4 2 2 2 1 1 1 1 1 2 3 3 2 2 3 4 6 8 8 6 3 5 6 2 2 2 4 5 9 8 8 7 7 7 7 6
5 4 4 5 6 5 3 3 1 1 1 2 3 4 3 3 1 2 1 1 2 1 2 3 4 3 1 1 1 1 0 2 2 4 5 8 8 8 7 7 7 7 7
5 4 4 5 6 6 4 2 2 2 2 3 3 4 3 2 3 2 2 3 2 1 2 3 2 3 4 4 3 2 2 2 3 3 4 8 7 7 6 6 6 7 6
5 4 5 6 6 5 3 2 4 3 2 3 2 3 4 3 3 2 2 2 3 3 3 3 3 4 3 4 4 4 4 3 4 3 3 6 6 6 7 6 6 6 6
5 5 5 5 4 4 3 3 3 3 3 3 3 3 4 3 3 3 3 3 3 2 2 3 3 3 2 2 3 4 4 4 3 3 3 4 6 6 6 7 6 7 6
6 6 4 4 5 5 5 4 4 3 3 3 3 4 4 4 4 4 4 3 3 3 4 3 4 4 3 3 3 3 3 3 3 3 2 3 3 5 6 7 7 6 6
6 6 3 4 6 5 4 4 3 4 4 3 4 5 6 6 5 4 3 3 3 3 3 3 3 3 3 3 3 2 2 2 3 3 2 2 2 3 4 6 6 7 7
6 5 4 4 5 4 3 3 4 3 3 4 4 4 5 6 6 4 3 4 4 3 4 4 4 3 3 3 1 2 2 2 3 4 4 4 3 3 2 4 5 6 6
5 6 5 3 4 3 2 4 3 3 3 3 3 4 5 5 6 4 3 5 5 4 4 4 4 4 3 3 3 2 1 2 3 3 4 4 3 3 3 2 2 3 6
4 6 5 4 4 3 2 2 2 2 3 3 3 4 4 5 5 4 4 4 5 4 4 5 4 4 3 3 2 2 2 3 3 2 3 3 3 4 3 3 2 2 3
4 4 4 4 4 4 2 2 2 2 3 3 3 4 5 5 6 5 5 4 4 4 5 5 4 4 3 4 3 2 2 3 4 3 3 3 4 3 3 4 3 3 3
4 4 4 4 5 4 3 2 2 2 2 2 3 2 4 5 5 5 5 4 4 4 4 4 5 5 4 4 4 3 2 2 3 3 4 4 4 3 3 3 4 4 4
4 3 4 3 5 4 4 2 2 2 2 2 2 2 3 4 4 5 5 5 5 4 4 5 5 4 4 4 3 3 2 1 1 2 3 4 4 4 4 4 4 4 5
5 4 4 4 5 4 4 3 2 3 2 2 2 3 3 3 3 4 4 4 4 3 4 4 5 5 4 4 3 3 4 3 3 2 2 3 3 3 3 3 4 4 4
5 4 4 5 5 3 3 3 3 3 3 3 3 2 1 1 2 3 4 4 4 3 3 3 4 4 4 5 4 4 3 3 3 3 2 2 2 2 2 3 3 3 3
Wind_Direction
90 88 87 84 83 85 85 83 80 78 78 77 75 73 70 68 66 64 60 60 57 53 51 49 46 44 44 42 38 37 37 34 30 30 34 39 43 41 40 34 27 41 45
98 94 89 86 85 85 84 83 80 77 78 77 75 72 70 67 66 63 61 59 56 53 50 46 44 43 42 39 33 30 27 18 10 5 10 30 45 45 46 43 36 37 38
95 96 89 85 84 83 83 82 80 79 78 77 74 72 69 67 64 62 60 57 53 50 47 44 42 39 36 33 27 21 15 1 348 337 328 356 63 56 52 44 37 33 34
94 89 88 86 84 83 83 82 81 79 77 75 73 71 68 65 61 58 56 54 50 46 42 39 37 34 30 28 20 10 4 350 340 336 359 38 54 61 52 42 33 31 33
93 91 91 88 86 84 83 81 79 77 74 73 70 66 62 58 55 53 51 49 47 41 37 35 32 29 27 23 16 2 352 341 335 341 14 44 60 56 49 40 33 33 36
97 96 94 92 89 86 84 81 78 75 72 70 67 62 57 53 51 48 45 42 40 38 34 32 29 27 23 17 10 357 345 335 329 355 31 57 68 59 51 42 37 36 35
104 104 103 98 94 90 86 82 77 72 69 65 62 58 55 53 51 47 44 40 35 34 33 31 24 22 17 10 2 351 338 328 310 344 71 75 72 64 51 42 40 36 34
112 113 113 108 102 94 88 83 79 73 69 66 61 57 54 55 55 51 45 40 35 31 29 27 20 15 10 3 350 338 331 328 343 19 70 80 71 63 52 45 41 40 39
112 120 125 127 116 106 99 93 88 84 81 77 72 63 52 57 67 67 59 44 37 30 24 16 6 358 351 341 328 320 319 323 325 341 63 69 71 62 52 48 43 43 47
113 119 128 134 136 134 126 118 118 114 109 115 120 249 280 238 131 101 77 56 35 22 11 353 331 317 309 301 296 298 301 306 295 52 75 74 67 59 54 52 48 56 56
113 120 120 122 122 127 134 132 149 150 154 175 203 244 259 234 163 126 85 94 35 338 316 300 291 287 284 275 268 272 285 274 280 77 69 73 68 60 59 57 57 59 58
120 126 132 128 121 105 93 118 143 121 140 163 69 76 21 51 45 69 123 198 237 266 285 275 277 279 263 252 254 256 269 285 76 87 78 75 69 65 63 59 60 60 60
104 97 112 113 109 108 91 89 78 79 82 46 25 54 32 20 42 69 156 222 248 259 308 293 276 279 298 263 273 216 352 15 65 78 83 79 73 70 69 65 60 61 63
98 94 84 91 91 84 79 90 77 54 56 46 16 39 43 17 16 14 48 356 7 18 345 337 337 356 3 5 3 31 42 46 74 94 96 86 76 72 70 69 63 62 63
107 88 70 69 78 87 74 51 79 57 41 64 20 33 44 28 17 8 49 17 15 3 359 344 1 1 10 11 13 27 28 43 68 88 103 103 93 81 71 70 66 65 64
109 91 76 75 78 86 88 75 66 80 72 49 12 33 49 37 25 19 38 28 5 356 356 356 8 356 20 26 22 25 22 38 50 81 110 112 99 90 80 72 69 70 68
113 101 89 87 72 61 55 54 69 55 59 51 20 10 41 43 35 28 18 21 2 4 13 7 9 4 26 28 27 33 34 33 31 60 82 109 109 96 91 83 76 74 71
108 102 94 89 84 70 58 42 56 52 50 48 33 10 19 34 38 30 13 3 14 12 2 11 17 8 20 22 10 22 40 34 28 36 57 94 108 109 102 95 85 76 71
109 113 102 79 91 89 94 80 55 64 56 53 42 19 15 20 28 31 10 4 20 20 6 15 21 9 3 360 8 46 31 39 31 37 33 56 64 77 97 102 95 82 73
109 107 99 81 85 93 74 80 64 45 54 56 52 31 21 19 20 19 29 18 18 22 12 14 13 11 356 353 13 34 41 60 54 41 29 38 44 51 62 89 98 82 71
115 112 117 114 94 83 59 65 72 68 63 51 51 32 34 29 16 25 29 25 27 25 21 21 11 7 359 0 16 10 18 51 57 61 46 37 44 45 41 57 69 75 76
115 114 119 107 95 92 84 83 88 86 90 84 57 34 30 37 16 23 33 34 36 28 25 22 19 9 358 15 24 20 13 11 9 40 46 45 49 37 31 51 48 64 73
126 127 119 125 120 113 105 79 69 66 64 78 77 58 38 42 25 14 21 31 33 36 26 24 26 22 10 8 32 46 47 11 335 360 29 42 37 36 29 31 44 54 66
140 130 125 116 107 108 106 81 98 97 84 75 81 89 72 50 39 19 20 31 39 34 27 28 31 21 28 11 4 22 43 59 27 352 1 21 31 41 33 32 35 41 61
142 133 118 104 89 83 90 78 62 71 86 79 73 70 71 57 47 32 27 34 38 34 31 36 35 32 31 25 13 10 11 14 20 49 3 359 13 24 25 31 40 37 49
128 120 104 96 90 88 103 108 93 88 86 85 74 70 86 82 57 48 46 39 36 31 32 31 43 44 37 32 26 24 25 25 8 18 15 5 9 350 17 35 48 40 47